Regional Weather Roundup
Issued by NWS New Orleans/Baton Rouge, LA

Home | Current Version | Previous Version | Text Only | Print | Product List | Glossary Off
Versions: 1 2 3 4 5 6 7 8 9 10 11 12 13 14 15 16 17 18 19 20 21 22 23 24 25 26 27 28 29 30 31 32 33 34 35 36 37 38 39 40 41 42 43 44 45 46 47 48 49 50

447
ASUS44 KLIX 242305
RWRLIX
NEW ORLEANS REGIONAL WEATHER ROUNDUP
NATIONAL WEATHER SERVICE NEW ORLEANS LA
600 PM CDT FRI OCT 24 2014

NOTE: "FAIR" INDICATES FEW OR NO CLOUDS BELOW 12,000 FEET WITH NO
      SIGNIFICANT WEATHER AND/OR OBSTRUCTIONS TO VISIBILITY.
      SKY/WX - SKY CONDITION AND SIGNIFICANT WEATHER.
      TMP - AIR TEMPERATURE.     DP    - DEWPOINT TEMPERATURE.
      RH  - RELATIVE HUMIDITY.   PRES  - PRESSURE.
      HI  - HEAT INDEX.          WCI   - WIND CHILL INDEX.

*  THESE STATIONS ARE NOT NWS OR FAA STATIONS AND ARE NOT UNDER
   NWS QUALITY CONTROL.

LAZ038-040-048-061>063-065>067-069-250000-
SOUTHEAST LOUISIANA

CITY           SKY/WX    TMP DP  RH WIND       PRES   REMARKS
N.O. AUDUBON   NOT AVBL
N.O. INTL ARPT PTCLDY    72  47  40 NW8       30.06R
N.O. LAKEFRONT CLEAR     73  54  51 NW10      30.05R
N.O. DOWNTOWN*   N/A     73  45  35 NW5       30.06R
SLIDELL        CLEAR     72  47  40 N5        30.05R
BATON ROUGE    CLEAR     73  46  38 N3        30.08R
BOOTHVILLE     CLEAR     71  52  50 CALM      30.04S
BELLE CHASSE   PTCLDY    73  45  36 N5        30.04S
BOGALUSA*        N/A     72  43  35 N6        30.07S
NEW ROADS*       N/A     70  48  46 NW7       30.09R
GONZALES*        N/A     70  51  51 N3        30.06S
HAMMOND*       CLEAR     73  45  35 NW3       30.08S
HOUMA*         CLEAR     72  46  40 N3        30.05R
PORT FOURCHON* CLEAR     73  46  38 N10       30.08R

$$

MSZ070-080>082-250000-
SOUTHERN MISSISSIPPI

CITY           SKY/WX    TMP DP  RH WIND       PRES   REMARKS
MCCOMB         CLEAR     71  45  39 NW7       30.07S
GULFPORT       CLEAR     73  46  38 N7        30.03R
BILOXI         CLEAR     73  48  40 N6        30.03R
PASCAGOULA     CLEAR     71  47  42 NW5       30.03R
STENNIS ARPT*  CLEAR     70  45  40 N3        30.04R

$$

COASTAL OBSERVATIONS
LAKE AND NEARSHORE STATIONS

STATION/POSITION TIME  TEMP    WIND        PRES    WAVE
                       AIR SEA DIR/SP/G            HT/PER
                 (UTC) (F)     (DEG/KT/KT) (MB)    (FT/S)
PASCAGOULA       2300   75     350/  5/  8 1016.1
WAVELAND YACHT   2300   74     360/  8/  9 1016.4
GRAND ISLE       2300   73 73   50/  5/  7 1017.8
SOUTHWEST PASS   2300   75 81              1017.3
NEW CANAL        2300   74 71  310/  3/  4 1018.0
SHELL BEACH      2300   72 68  310/ 10/ 11 1017.1

OFFSHORE STATIONS

STATION/POSITION TIME  TEMP    WIND        PRES    WAVE
                       AIR SEA DIR/SP/G            HT/PER
                 (UTC) (F)     (DEG/KT/KT) (MB)    (FT/S)
64 S DAUPHIN ISL 2207   71 79  360/ 12/ 14 1016.9    2/ 6

$$




USA.gov is the U.S. government's official web portal to all federal, state and local government web resources and services.